Location: Ústí nad Labem
(50.6611°N, 14.0531°E)
Time: 05:05:51
(UTC+01:00)

Envisat - Visible Passes

Search period start: 28 February 2024 00:00
Search period end: 09 March 2024 00:00
Orbit: 762 x 764 km, 98.3° (Epoch: 27 February)

Date Brightness Start Highest point End Pass type
(mag) Time Alt. Az. Time Alt. Az. Time Alt. Az.
28 Feb 5.1 02:38:32 10° NE 02:41:16 22° ENE 02:41:16 22° ENE visible
28 Feb 3.3 04:17:05 10° N 04:21:27 49° NW 04:21:27 49° NW visible
28 Feb 4.9 05:58:55 10° NW 05:59:54 11° NW 06:00:52 10° WNW visible
29 Feb 5.8 02:02:43 10° ENE 02:03:41 12° ENE 02:03:41 12° ENE visible
29 Feb 3.4 03:39:40 10° NNE 03:43:51 60° NNE 03:43:51 60° NNE visible
29 Feb 4.4 05:19:41 10° NNW 05:23:10 19° NW 05:24:01 18° WNW visible
01 Mar 4.4 03:02:33 10° NNE 03:06:15 36° ENE 03:06:15 36° ENE visible
01 Mar 3.7 04:41:43 10° N 04:46:16 34° WNW 04:46:25 34° WNW visible
02 Mar 5.3 02:25:57 10° NE 02:28:40 19° ENE 02:28:40 19° ENE visible
02 Mar 3.0 04:04:07 10° N 04:08:50 64° NW 04:08:50 64° NW visible
02 Mar 4.8 05:44:58 10° NNW 05:47:13 13° NW 05:49:00 11° WNW visible
03 Mar 3.4 03:26:47 10° NNE 03:31:15 59° ENE 03:31:15 59° ENE visible
03 Mar 4.2 05:06:30 10° N 05:10:25 23° WNW 05:11:25 22° WNW visible
04 Mar 4.6 02:49:49 10° NNE 02:53:39 31° ENE 02:53:39 31° ENE visible
04 Mar 3.4 04:28:40 10° N 04:33:27 42° WNW 04:33:49 41° WNW visible
05 Mar 5.5 02:13:31 10° NE 02:16:03 16° E 02:16:03 16° E visible
05 Mar 2.8 03:51:10 10° NNE 03:56:14 82° WNW 03:56:14 82° WNW visible
05 Mar 4.6 05:31:32 10° NNW 05:34:30 16° NW 05:36:24 13° WNW visible
06 Mar 3.7 03:13:57 10° NNE 03:18:38 50° E 03:18:38 50° E visible
06 Mar 3.9 04:53:22 10° N 04:57:38 28° WNW 04:58:48 26° W visible
07 Mar 4.8 02:37:07 10° NE 02:41:02 25° E 02:41:02 25° E visible
07 Mar 3.1 04:15:40 10° N 04:20:37 52° WNW 04:21:13 49° W visible
07 Mar 5.0 05:57:25 10° NW 05:58:30 11° NW 05:59:35 10° WNW visible
08 Mar 5.6 02:01:22 10° ENE 02:03:27 13° E 02:03:27 13° E visible
08 Mar 2.9 03:38:15 10° NNE 03:43:22 80° ESE 03:43:37 77° SE visible
08 Mar 4.4 05:18:15 10° NNW 05:21:46 19° WNW 05:23:47 15° W visible
